Regional Weather Roundup
Issued by NWS Sioux Falls, SD

Home | Current Version | Previous Version | Graphics & Text | Print | Product List | Glossary Off
Versions: 1 2 3 4 5 6 7 8 9 10 11 12 13 14 15 16 17 18 19 20 21 22 23 24 25 26 27 28 29 30 31 32 33 34 35 36 37 38 39 40 41 42 43 44 45 46 47 48 49 50

000
ASUS43 KFSD 260302
RWRFSD

WEATHER ROUNDUP FOR SE SOUTH DAKOTA/SW MINNESOTA/NW IOWA
NATIONAL WEATHER SERVICE SIOUX FALLS SD
1000 PM CDT MON SEP 25 2017

NOTE: "FAIR" INDICATES FEW OR NO CLOUDS BELOW 12,000 FEET WITH NO
SIGNIFICANT WEATHER AND OR OBSTRUCTIONS TO VISIBILITY.


SDZ038>040-050-052>070-260400-
SOUTHEAST SOUTH DAKOTA

CITY           SKY/WX    TMP DP  RH WIND       PRES   REMARKS
BROOKINGS      LGT RAIN  50  49  96 N6        30.04F FOG
CHAMBERLAIN    LGT RAIN  51  51 100 N5        30.10R
HURON          RAIN      49  49 100 N10       30.07F FOG
MADISON        MOCLDY    48  48 100 NE8       30.04F FOG
MITCHELL       CLOUDY    51  50  96 N8        30.08R
SIOUX FALLS    DRIZZLE   53  53 100 N8        30.02S
WINNER         LGT RAIN  50  48  93 NW5       30.10R
YANKTON        LGT RAIN  53  52  96 NW8       30.03S FOG
$$

MNZ071-072-080-081-089-090-097-098-260400-
SOUTHWEST MINNESOTA

CITY           SKY/WX    TMP DP  RH WIND       PRES   REMARKS
FAIRMONT       LGT RAIN  57  56  96 N8        29.99R
JACKSON        RAIN      55  55 100 CALM      29.99F
MARSHALL       LGT RAIN  52  52 100 N8        30.02F
MONTEVIDEO     DRIZZLE   54  52  94 N3        30.02S
PIPESTONE      LGT RAIN  52  52 100 N7        30.01F
REDWOOD FALLS  LGT RAIN  56  54  93 N5        30.00F FOG
TRACY          CLOUDY    54  54 100 N7        30.01F
WORTHINGTON    CLOUDY    54  53  97 N8        29.99F
$$

IAZ001>003-012>014-020>022-031-032-NEZ013-014-SDZ071-260400-
NORTHWEST IOWA

CITY           SKY/WX    TMP DP  RH WIND       PRES   REMARKS
CHEROKEE       DRIZZLE   57  57 100 CALM      29.98F
DENISON        DRIZZLE   61  61 100 NE6       29.97F
ESTHERVILLE    LGT RAIN  56  56 100 N7        29.98S
LE MARS        CLOUDY    57  55  94 N5        29.99S
ORANGE CITY    CLOUDY    57  57 100 N5        30.00R
SHELDON        CLOUDY    55  55 100 NE6       29.98S
SIOUX CITY     LGT RAIN  57  57 100 N6        29.99F
SPENCER        LGT RAIN  58  56  93 NE5       29.98F
STORM LAKE     CLOUDY    57  57 100 NE8       29.97S
$$

ABBREVIATIONS USED IN REMARKS
   TC - TEMPERATURE IN CELSIUS
  WCI - WIND CHILL INDEX
   HX - HEAT INDEX
  VSB - VISIBILITY





USA.gov is the U.S. government's official web portal to all federal, state and local government web resources and services.